星链-2733 (STARLINK-2733 )

导读 | 星芒AI

STARLINK-2733 是 SpaceX 星链计划中的一颗低轨通信卫星,属于第27组星链卫星任务中的第三颗。该卫星于2023年发射,部署在约550公里高度的近地轨道,旨在为全球用户提供高速互联网服务。星链卫星采用可重复使用设计,配备先进推进系统和激光通信技术,以提升网络稳定性和数据传输效率。STARLINK-2733 的运行有助于扩展星链网络覆盖范围,特别是在偏远和网络基础设施薄弱地区。

基本信息
目录编号:
48645
目录名称:
STARLINK-2733
国际标识:
2021-044H
轨道中心:
EARTH
卫星名称:
星链-2733
卫星全名:
星链-2733 (STARLINK-2733 )
卫星状态:
已陨落 最后检测时间 2025-03-29
发射日期:
2021-05-26 UTC
国别 :
美国 (US)
星等 :
--
轨道信息
数据来源 国际轨道数据
星历时间: 2025-03-29T12:03:38+0800
轨道信息已过期215天
半长轴: 6530.645km
偏心率: 0.0007505
轨道倾角: 53.019°
近地点辐角 17.325°
升交点赤经 193.989°
平近点角 52.452°
近地点: 147.608km
远地点: 157.412km
周期: 87.537分钟
每日圈数: 16.450107
详细信息
固有亮度:
5
最大亮度:
2.5
卫星平台:
Starlink V1.0
覆盖范围:
全球
运营商:
太空探索技术公司
运营商所在国:
美国
制造商(研发单位):
太空探索技术公司
制造商所在国:
美国
使用方式:
暂无
卫星简介
星链(Starlink)计划是由太空探索技术公司(SpaceX)提出的一个巨型低轨卫星互联网星座项目,计划在2019年至2024年间在太空搭建由约1.2万颗卫星组成的“星链”网络,其中1584颗将部署在地球上空550千米处的近地轨道,并从2020年开始工作。该卫星仍在工作。